Location: ActonStarParty
(42.4766°N, 71.4538°W)
Time: 06:00:52
(UTC-04:00)

ATLAS 5 CENTAUR R/B - Visible Passes

Search period start: 22 May 2015 00:00
Search period end: 01 June 2015 00:00
Orbit: 336 x 14886 km, 60.8° (Epoch: 08 May)

Date Brightness Start Highest point End Pass type
(mag) Time Alt. Az. Time Alt. Az. Time Alt. Az.
22 May 8.4 04:25:58 10° WSW 06:49:33 60° N 07:24:48 10° ENE visible
22 May 8.3 22:39:54 17° SE 23:44:23 46° E 01:15:33 10° NE visible
23 May 8.2 03:14:13 18° SW 05:21:01 67° NNW 06:12:03 10° ENE visible
23 May 8.5 21:35:58 10° ESE 22:33:54 31° E 00:00:08 10° NE visible
24 May 8.1 02:05:44 26° SSW 03:50:31 79° NW 04:59:01 10° NE visible
24 May 8.7 20:54:20 10° E 21:27:01 19° ENE 22:41:34 10° NE visible
25 May 8.0 00:57:07 30° S 02:23:20 85° ESE 03:45:45 10° NE visible
25 May 8.1 23:48:19 28° SSE 01:01:58 69° ESE 02:32:13 10° NE visible
26 May 8.3 04:32:56 10° WSW 06:56:33 59° N 07:26:59 10° E visible
26 May 8.2 22:39:21 21° SE 23:45:53 52° E 01:18:11 10° NE visible
27 May 8.3 03:13:32 13° SW 05:29:27 64° NNW 06:14:14 10° ENE visible
27 May 8.3 21:30:13 11° SE 22:33:53 37° E 00:03:10 10° NE visible
28 May 8.2 02:04:21 22° SW 03:58:37 74° NW 05:01:04 10° NE visible
28 May 8.5 20:41:27 10° E 21:25:26 23° E 22:45:59 10° NE visible
29 May 8.1 00:54:59 27° SSW 02:29:13 88° NW 03:47:40 10° NE visible
29 May 9.0 20:11:43 10° ENE 20:21:04 12° ENE 21:21:55 10° NE visible
29 May 8.0 23:45:24 26° S 01:05:19 75° ESE 02:34:01 10° NE visible
30 May 8.2 04:40:30 10° WSW 07:02:00 59° N 07:28:25 10° E visible
30 May 8.1 22:35:34 21° SSE 23:47:13 58° ESE 01:19:58 10° NE visible
31 May 8.4 03:14:01 10° WSW 05:36:34 61° NNW 06:15:40 10° ENE visible
